IZ0QWM-13 Scandriglia IT current weather conditions

sailwx.info

Wind from 077

Air temperature 16.1° C
Dewpoint 16.1° C

Last reported at 2014-Jul-29 01:48 UTC.
Time now 2014-Jul-29 02:37 UTC

Location: N 42°10' E 012°47'.
View on Google Maps.

See reports from other nearby stations

  
Tides and Currents Weather Stations Pressure Air Temp Water Temp Dewpoint Dewpoint Depression Visibility Wind Speed Wind Dir Waves Ship Positions
date/time (UTC)wind fromknots sea level pressurealtimeterstation pressurevisibilityair tempwater tempwave heightnotes
2014-Jul-29 01:48 077 16.1
2014-Jul-29 01:42 077 16.1
2014-Jul-29 01:38 077 16.1
2014-Jul-29 01:32 077 16.1
2014-Jul-29 01:28 077 16.1
2014-Jul-29 01:22 077 16.1
2014-Jul-29 01:18 077 16.1
2014-Jul-29 01:12 077 16.1
2014-Jul-29 01:08 077 16.1
2014-Jul-29 01:02 077 16.1
2014-Jul-29 00:58 077 16.1
2014-Jul-29 00:52 077 16.1
2014-Jul-29 00:48 077 16.1
2014-Jul-29 00:42 077 16.1
2014-Jul-29 00:38 077 16.1
2014-Jul-29 00:32 077 16.1
2014-Jul-29 00:28 077 16.1
2014-Jul-29 00:22 077 16.7
2014-Jul-29 00:18 077 16.1
2014-Jul-29 00:12 077 16.1
2014-Jul-29 00:08 077 16.1
2014-Jul-29 00:02 077 16.1
2014-Jul-28 23:58 077 16.1
2014-Jul-28 23:52 030 16.7
2014-Jul-28 23:48 030 16.7
2014-Jul-28 23:42 030 17.2
2014-Jul-28 23:38 030 17.2
2014-Jul-28 23:32 030 16.7
2014-Jul-28 23:28 030 16.7
2014-Jul-28 23:22 030 16.7
2014-Jul-28 23:18 030 16.7
2014-Jul-28 23:12 030 16.7
2014-Jul-28 23:08 030 16.7
2014-Jul-28 23:02 030 16.7
2014-Jul-28 22:58 030 16.7
2014-Jul-28 22:52 030 17.2
2014-Jul-28 22:48 030 17.2
2014-Jul-28 22:42 030 17.2
2014-Jul-28 22:38 030 17.2
2014-Jul-28 22:32 030 17.8
2014-Jul-28 22:28 030 17.8
2014-Jul-28 22:22 020 17.8
2014-Jul-28 22:18 020 17.8
2014-Jul-28 22:12 020 17.8
2014-Jul-28 22:08 020 17.8
2014-Jul-28 22:02 020 17.8
2014-Jul-28 21:58 020 17.8
2014-Jul-28 21:52 020 18.3
2014-Jul-28 21:48 020 18.3
2014-Jul-28 21:42 020 18.3
2014-Jul-28 21:38 020 18.3
2014-Jul-28 21:32 020 18.9
2014-Jul-28 21:28 020 19.4
2014-Jul-28 21:22 020 19.4
2014-Jul-28 21:18 020 19.4
2014-Jul-28 21:12 156 19.4
2014-Jul-28 21:08 156 19.4
2014-Jul-28 21:02 156 19.4
2014-Jul-28 20:58 156 19.4
2014-Jul-28 20:52 156 20.0
2014-Jul-28 20:48 156 20.0
2014-Jul-28 20:42 156 20.6
2014-Jul-28 20:38 156 20.6
2014-Jul-28 20:32 156 21.1
2014-Jul-28 20:28 156 21.1
2014-Jul-28 20:22 153 2 gusting 4 21.1
2014-Jul-28 20:18 149 21.1
2014-Jul-28 20:11 245 21.1
2014-Jul-28 20:08 245 21.1
2014-Jul-28 20:01 245 21.1
2014-Jul-28 19:58 245 21.1
2014-Jul-28 19:51 245 21.1
2014-Jul-28 19:48 245 21.1
2014-Jul-28 19:41 245 21.7
2014-Jul-28 19:38 245 21.7
2014-Jul-28 19:31 245 21.7
2014-Jul-28 19:28 245 2 gusting 13 21.7
2014-Jul-28 19:21 181 21.7
2014-Jul-28 19:18 152 21.7
2014-Jul-28 19:11 152 21.7
2014-Jul-28 19:08 152 21.7
2014-Jul-28 19:01 152 22.2
2014-Jul-28 18:58 152 22.2
2014-Jul-28 18:51 152 22.2
2014-Jul-28 18:48 152 22.2
2014-Jul-28 18:41 152 22.8
2014-Jul-28 18:38 152 22.8
2014-Jul-28 18:31 152 22.8
2014-Jul-28 18:28 152 22.8
2014-Jul-28 18:21 152 23.3
2014-Jul-28 18:18 152 23.3
2014-Jul-28 18:11 280 23.3
2014-Jul-28 18:08 280 23.3
2014-Jul-28 18:01 174 23.9
2014-Jul-28 17:58 166 23.9
2014-Jul-28 17:51 143 2 gusting 15 23.9
2014-Jul-28 17:48 188 23.9
2014-Jul-28 17:41 138 2 gusting 15 24.4
2014-Jul-28 17:38 172 24.4
2014-Jul-28 17:31 165 24.4
2014-Jul-28 17:28 188 3 gusting 13 24.4
2014-Jul-28 17:21 159 5 gusting 15 24.4
2014-Jul-28 17:18 163 24.4
2014-Jul-28 17:11 155 1 gusting 15 24.4
2014-Jul-28 17:08 177 6 gusting 13 24.4
2014-Jul-28 17:01 187 6 gusting 15 24.4
2014-Jul-28 16:58 176 5 gusting 13 24.4
2014-Jul-28 16:51 178 7 gusting 15 24.4
2014-Jul-28 16:48 214 4 gusting 13 24.4
2014-Jul-28 16:41 189 6 gusting 15 25.0
2014-Jul-28 16:38 180 6 gusting 13 25.0
2014-Jul-28 16:31 177 6 gusting 15 25.0
2014-Jul-28 16:28 173 2 gusting 13 25.0
2014-Jul-28 16:21 197 6 gusting 15 24.4
2014-Jul-28 16:18 136 3 gusting 13 24.4
2014-Jul-28 16:11 156 24.4
2014-Jul-28 16:08 219 3 gusting 13 24.4
2014-Jul-28 16:01 214 4 gusting 15 24.4
2014-Jul-28 15:58 194 4 gusting 13 24.4
2014-Jul-28 15:51 196 3 gusting 15 24.4
2014-Jul-28 15:41 193 8 gusting 13 25.6
2014-Jul-28 15:31 204 25.6
2014-Jul-28 15:21 173 7 gusting 11 25.6
2014-Jul-28 15:11 155 26.1
2014-Jul-28 15:01 172 26.1
2014-Jul-28 14:51 153 26.1
2014-Jul-28 14:41 222 25.6
2014-Jul-28 14:31 204 6 gusting 11 25.0
2014-Jul-28 14:21 178 3 gusting 11 25.0
2014-Jul-28 14:11 127 25.6
2014-Jul-28 14:01 189 3 gusting 11 25.6
2014-Jul-28 13:50 154 4 gusting 11 26.1
2014-Jul-28 13:40 190 4 gusting 11 26.7
2014-Jul-28 13:30 149 26.7
2014-Jul-28 13:20 148 26.7
2014-Jul-28 13:10 165 6 gusting 11 26.7
2014-Jul-28 13:00 214 3 gusting 8 26.7
2014-Jul-28 12:50 231 26.1
2014-Jul-28 12:40 156 26.1
2014-Jul-28 12:30 145 2 gusting 8 26.1
2014-Jul-28 12:20 143 2 gusting 8 26.1
2014-Jul-28 12:10 311 25.6
2014-Jul-28 12:00 121 25.6
2014-Jul-28 11:50 177 5 gusting 8 25.6
2014-Jul-28 11:40 169 2 gusting 8 25.0
2014-Jul-28 11:30 182 6 gusting 8 25.6
2014-Jul-28 11:20 207 25.6
2014-Jul-28 11:10 267 25.6
2014-Jul-28 11:00 195 25.0
2014-Jul-28 10:50 201 1 gusting 8 25.6
2014-Jul-28 10:40 198 25.0
2014-Jul-28 10:30 188 24.4
2014-Jul-28 10:20 183 25.0
2014-Jul-28 10:10 267 24.4
2014-Jul-28 10:00 188 24.4
2014-Jul-28 09:50 249 24.4
2014-Jul-28 09:40 263 4 gusting 6 24.4
2014-Jul-28 09:29 194 3 gusting 6 23.9
2014-Jul-28 09:19 180 23.9
2014-Jul-28 09:09 248 23.9
2014-Jul-28 08:59 269 23.9
2014-Jul-28 08:49 172 23.9
2014-Jul-28 08:39 202 23.3
2014-Jul-28 08:29 186 1 gusting 5 22.8
2014-Jul-28 08:19 153 4 gusting 5 22.8
2014-Jul-28 08:09 183 22.8
2014-Jul-28 07:59 030 22.2
2014-Jul-28 07:49 030 22.2
2014-Jul-28 07:39 030 21.7
2014-Jul-28 07:29 030 21.7
2014-Jul-28 07:19 030 21.1
2014-Jul-28 07:09 030 21.1
2014-Jul-28 06:59 030 21.1
2014-Jul-28 06:49 030 20.6
2014-Jul-28 06:39 030 19.4
2014-Jul-28 06:29 030 18.9
2014-Jul-28 06:19 030 18.9
2014-Jul-28 06:09 030 18.3
2014-Jul-28 05:59 030 17.8
2014-Jul-28 05:49 030 17.8
2014-Jul-28 05:39 030 17.8
2014-Jul-28 05:29 030 17.2
2014-Jul-28 05:19 030 17.2
2014-Jul-28 05:09 030 16.7
2014-Jul-28 04:59 030 16.7
2014-Jul-28 04:49 030 16.1
2014-Jul-28 04:39 030 16.1
2014-Jul-28 04:29 030 16.1
2014-Jul-28 04:19 030 16.1
2014-Jul-28 04:09 030 16.1
2014-Jul-28 03:59 030 16.1
2014-Jul-28 03:49 030 16.1
2014-Jul-28 03:39 030 16.1
2014-Jul-28 03:29 030 16.7
2014-Jul-28 03:19 030 16.7
2014-Jul-28 03:09 030 16.7
2014-Jul-28 02:59 030 16.7
2014-Jul-28 02:49 030 16.7
2014-Jul-28 02:39 030 16.7
2014-Jul-28 02:29 030 16.7
2014-Jul-28 02:18 030 16.7
2014-Jul-28 02:08 030 16.7
2014-Jul-28 01:58 030 16.7
2014-Jul-28 01:48 030 16.7
2014-Jul-28 01:38 030 17.2
2014-Jul-28 01:28 030 16.7
2014-Jul-28 01:18 030 16.7
2014-Jul-28 01:08 030 16.7
2014-Jul-28 00:58 059 16.7
2014-Jul-28 00:48 059 16.7
2014-Jul-28 00:38 059 16.7
2014-Jul-28 00:28 059 17.2
2014-Jul-28 00:18 059 17.2
2014-Jul-28 00:08 059 17.2
2014-Jul-27 23:58 059 17.2
2014-Jul-27 23:48 059 17.2
2014-Jul-27 23:38 059 17.8
2014-Jul-27 23:28 059 17.8
2014-Jul-27 23:18 059 17.2
2014-Jul-27 23:08 059 17.8
2014-Jul-27 22:58 059 17.8
2014-Jul-27 22:48 084 17.8
2014-Jul-27 22:38 136 17.8
2014-Jul-27 22:28 136 17.8
2014-Jul-27 22:18 136 17.8
2014-Jul-27 22:08 136 18.3
2014-Jul-27 21:58 136 18.3
2014-Jul-27 21:48 136 18.3
2014-Jul-27 21:38 136 18.3
2014-Jul-27 21:28 136 18.3
2014-Jul-27 21:18 136 18.9
2014-Jul-27 21:08 136 18.9
2014-Jul-27 20:58 136 18.9
2014-Jul-27 20:48 136 18.9
2014-Jul-27 20:38 136 18.9
2014-Jul-27 20:28 136 19.4
2014-Jul-27 20:18 136 19.4
2014-Jul-27 20:08 136 19.4
2014-Jul-27 19:58 136 20.0
2014-Jul-27 19:48 136 20.0
2014-Jul-27 19:38 136 20.0
2014-Jul-27 19:28 136 20.6
2014-Jul-27 19:18 136 20.6
2014-Jul-27 19:08 136 20.6
2014-Jul-27 18:58 136 21.1
2014-Jul-27 18:48 136 21.1
2014-Jul-27 18:38 136 21.7
2014-Jul-27 18:28 136 21.7
2014-Jul-27 18:18 136 22.2
2014-Jul-27 18:08 136 22.8
2014-Jul-27 17:58 136 23.3
2014-Jul-27 17:48 136 23.3
2014-Jul-27 17:38 136 23.9
2014-Jul-27 17:28 136 23.9
2014-Jul-27 17:18 136 23.9
2014-Jul-27 17:08 136 23.3
2014-Jul-27 16:58 136 22.8
2014-Jul-27 16:48 184 5 gusting 9 22.8
2014-Jul-27 16:38 224 24.4
2014-Jul-27 16:28 229 2 gusting 9 24.4
2014-Jul-27 16:18 179 24.4
2014-Jul-27 16:08 204 24.4
2014-Jul-27 15:58 134 24.4
2014-Jul-27 15:48 134 23.9
2014-Jul-27 15:38 134 23.9
2014-Jul-27 15:28 134 23.3
2014-Jul-27 15:18 359 23.3
2014-Jul-27 15:08 198 23.3
2014-Jul-27 14:58 208 5 gusting 9 23.9
2014-Jul-27 14:48 179 4 gusting 9 25.0
2014-Jul-27 14:38 163 25.0
2014-Jul-27 14:28 031 25.0
2014-Jul-27 14:18 031 24.4
2014-Jul-27 14:08 031 23.9
2014-Jul-27 13:58 031 22.8
2014-Jul-27 13:48 031 22.8
2014-Jul-27 13:38 031 22.8
2014-Jul-27 13:28 031 22.8
2014-Jul-27 13:25 031 22.8
2014-Jul-27 13:18 031 22.8
2014-Jul-27 13:15 031 22.2
2014-Jul-27 13:08 205 22.8
2014-Jul-27 13:05 205 22.8
2014-Jul-27 12:58 117 23.3
2014-Jul-27 12:55 101 4 gusting 11 23.3
2014-Jul-27 12:48 153 23.3
2014-Jul-27 12:45 153 23.9
2014-Jul-27 12:38 101 4 gusting 7 24.4
2014-Jul-27 12:35 359 24.4
2014-Jul-27 12:28 013 24.4
2014-Jul-27 12:25 307 2 gusting 8 24.4
2014-Jul-27 12:18 359 24.4
2014-Jul-27 12:15 292 24.4
2014-Jul-27 12:08 292 25.0
2014-Jul-27 12:05 292 25.0
2014-Jul-27 11:58 278 3 gusting 7 25.0
2014-Jul-27 11:55 352 25.0
2014-Jul-27 11:48 330 3 gusting 7 25.0
2014-Jul-27 11:45 359 24.4
2014-Jul-27 11:38 357 24.4
2014-Jul-27 11:35 273 24.4
2014-Jul-27 11:28 141 24.4
2014-Jul-27 11:25 141 24.4
2014-Jul-27 11:18 256 24.4
2014-Jul-27 11:15 183 25.0
2014-Jul-27 11:08 183 25.0
2014-Jul-27 11:05 183 25.0
2014-Jul-27 10:58 183 25.0
2014-Jul-27 10:55 183 25.0
2014-Jul-27 10:48 302 1 gusting 6 25.0
2014-Jul-27 10:45 283 25.0
2014-Jul-27 10:38 235 25.0
2014-Jul-27 10:35 235 25.0
2014-Jul-27 10:28 298 25.0
2014-Jul-27 10:25 329 25.0
2014-Jul-27 10:18 278 24.4
2014-Jul-27 10:15 174 24.4
2014-Jul-27 10:08 174 24.4
2014-Jul-27 10:05 292 24.4
2014-Jul-27 09:58 350 25.0
2014-Jul-27 09:55 177 25.0
2014-Jul-27 09:48 264 2 gusting 6 25.0
2014-Jul-27 09:45 176 25.0
2014-Jul-27 09:38 146 24.4
2014-Jul-27 09:35 190 5 gusting 7 24.4
2014-Jul-27 09:28 298 24.4
2014-Jul-27 09:25 298 24.4
2014-Jul-27 09:18 298 24.4
2014-Jul-27 09:15 298 24.4
2014-Jul-27 09:08 291 24.4
2014-Jul-27 09:05 359 24.4
2014-Jul-27 08:58 353 24.4
2014-Jul-27 08:55 353 24.4
2014-Jul-27 08:48 359 23.9
2014-Jul-27 08:45 359 23.9
2014-Jul-27 08:38 359 23.9
2014-Jul-27 08:35 359 2 gusting 2 23.9
2014-Jul-27 08:28 290 23.3
2014-Jul-27 08:25 290 23.3
2014-Jul-27 08:18 290 23.3
2014-Jul-27 08:15 290 23.3
2014-Jul-27 08:08 080 23.3
2014-Jul-27 08:05 080 23.3
2014-Jul-27 07:58 080 23.3
2014-Jul-27 07:55 080 23.3
2014-Jul-27 07:48 080 23.9
2014-Jul-27 07:44 080 23.9
2014-Jul-27 07:38 080 23.3
2014-Jul-27 07:34 080 23.3
2014-Jul-27 07:28 080 22.8
2014-Jul-27 07:24 080 22.8
2014-Jul-27 07:18 080 22.2
2014-Jul-27 07:14 080 22.2
2014-Jul-27 07:08 080 21.7
2014-Jul-27 07:04 080 21.1
2014-Jul-27 06:58 080 20.6
2014-Jul-27 06:54 080 20.6
2014-Jul-27 06:48 080 20.0
2014-Jul-27 06:44 080 20.0
2014-Jul-27 06:38 080 19.4
2014-Jul-27 06:34 080 19.4
2014-Jul-27 06:28 080 19.4
2014-Jul-27 06:24 080 18.9
2014-Jul-27 06:18 080 18.9
2014-Jul-27 06:14 080 18.9
2014-Jul-27 06:08 080 18.9
2014-Jul-27 06:04 080 18.3
2014-Jul-27 05:58 080 18.3
2014-Jul-27 05:54 080 18.3
2014-Jul-27 05:48 080 18.3
2014-Jul-27 05:44 080 17.8
2014-Jul-27 05:38 080 17.8
2014-Jul-27 05:34 080 17.8
2014-Jul-27 05:28 080 17.8
2014-Jul-27 05:24 080 17.2
2014-Jul-27 05:18 080 17.2
2014-Jul-27 05:14 080 17.2
2014-Jul-27 05:08 080 17.2
2014-Jul-27 05:04 080 16.7
2014-Jul-27 04:58 080 16.7
2014-Jul-27 04:54 080 16.7
2014-Jul-27 04:48 080 16.7
2014-Jul-27 04:44 080 16.7
2014-Jul-27 04:38 080 16.7
2014-Jul-27 04:34 080 16.7
2014-Jul-27 04:28 080 16.7
2014-Jul-27 04:24 080 16.7
2014-Jul-27 04:18 080 16.7
2014-Jul-27 04:14 080 16.7
2014-Jul-27 04:08 090 16.7
2014-Jul-27 04:04 038 17.2
2014-Jul-27 03:58 038 17.2
2014-Jul-27 03:54 038 17.2
2014-Jul-27 03:48 038 17.2
2014-Jul-27 03:44 038 17.2
2014-Jul-27 03:38 038 17.2
2014-Jul-27 03:34 038 17.2
2014-Jul-27 03:28 056 17.2
2014-Jul-27 03:24 066 17.2
2014-Jul-27 03:18 066 17.2
2014-Jul-27 03:14 049 17.8
2014-Jul-27 03:08 069 17.8
2014-Jul-27 03:04 069 17.8
2014-Jul-27 02:57 069 17.8
2014-Jul-27 02:54 069 17.8
2014-Jul-27 02:47 069 17.2
2014-Jul-27 02:44 069 17.2
2014-Jul-27 02:37 069 17.2
2014-Jul-27 02:34 069 17.2
2014-Jul-27 02:27 069 17.2
2014-Jul-27 02:24 069 17.8
2014-Jul-27 02:17 069 17.8
2014-Jul-27 02:14 069 17.8
2014-Jul-27 02:07 069 17.8
2014-Jul-27 02:04 069 17.8